Location: Dittelbrunn
(50.0738°N, 10.2196°E)
Time: 03:28:23
(UTC+00:00)

Cosmos 1891 Rocket - Pass Details

Date: 18 September 2020
Orbit: 933 x 1019 km, 82.9° (Epoch: 18 October)

Event Time Altitude Azimuth Distance (km) Brightness Sun altitude
Rises 18:25:39 0° 173° (S) 3,643 7.3 -10.4°
Reaches altitude 10° 18:28:12 10° 169° (S) 2,689 6.6 -10.8°
Maximum altitude 18:34:10 57° 93° (E) 1,111 4.5 -11.7°
Drops below altitude 10° 18:40:05 10° 16° (NNE) 2,664 6.8 -12.6°
Sets 18:42:36 0° 13° (NNE) 3,608 7.6 -13.0°
